Weather History for KAVX - October, 2012

Change the Weather History Date:

Thursday, October 18, 2012

  Actual Average Record
Temperature  
Mean Temperature 73 °F -  
Max Temperature 82 °F 68 °F 90 °F (2003)
Min Temperature 64 °F 55 °F 51 °F (2002)
Cooling Degree Days 8    
Growing Degree Days 23 (Base 50)    
Moisture  
Dew Point 57 °F    
Average Humidity 72    
Maximum Humidity 94    
Minimum Humidity 18    
Precipitation  
Precipitation 0.00 in - - ()
Sea Level Pressure  
Sea Level Pressure 29.97 in    
Wind  
Wind Speed 13 mph (South)    
Max Wind Speed 24 mph    
Max Gust Speed 33 mph    
Visibility 10 miles    
Events      
Averages and records for this station are not official NWS values.
T = Trace of Precipitation, MM = Missing Value Source: NWS Daily Summary

Daily Weather History Graph

Daily Weather History Graph

Search for Another Location

Airport or City:

Trip Planner

Search our weather history database for the weather conditions in past years. The results will help you decide how hot, cold, wet, or windy it might be!

Date:

Astronomy

Oct. 18, 2012 Rise Set
Actual Time 7:01 AM PDT 6:15 PM PDT
Civil Twilight 6:35 AM PDT 6:40 PM PDT
Nautical Twilight 6:06 AM PDT 7:09 PM PDT
Astronomical Twilight 5:38 AM PDT 7:38 PM PDT
Moon 10:37 AM PDT (10/18) 9:05 PM PDT (10/18)
Length of Visible Light 12h 04m
Length of Day
11h 14m
Waxing Crescent, 15% of the Moon is Illuminated
Oct 18
Waxing Crescent
Oct 21
First Quarter
Oct 29
Full
Nov 6
Last Quarter
Nov 13
New

Hourly Weather History & Observations

Time (PDT) Temp. Dew Point Humidity Pressure Visibility Wind Dir Wind Speed Gust Speed Precip Events Conditions
12:51 AM 82.0 °F 35.1 °F 18% 29.82 in 10.0 mi SE 15.0 mph - N/A   Clear
1:51 AM 81.0 °F 36.0 °F 20% 29.83 in 10.0 mi SE 11.5 mph - N/A   Clear
2:51 AM 75.9 °F 39.9 °F 27% 29.84 in 10.0 mi SSE 16.1 mph 21.9 mph N/A   Clear
3:51 AM 70.0 °F 54.0 °F 57% 29.85 in 10.0 mi South 21.9 mph 32.2 mph N/A   Clear
4:51 AM 68.0 °F 62.1 °F 81% 29.88 in 10.0 mi South 24.2 mph 33.4 mph N/A   Clear
5:51 AM 66.9 °F 62.1 °F 84% 29.90 in 10.0 mi South 21.9 mph 33.4 mph N/A   Clear
6:39 AM 66.2 °F 62.6 °F 88% 30.02 in 10.0 mi SSE 6.9 mph - N/A   Scattered Clouds
6:51 AM 66.0 °F 62.1 °F 87% 29.94 in 10.0 mi SSE 11.5 mph 18.4 mph N/A   Scattered Clouds
7:46 AM 64.4 °F 62.6 °F 94% 30.04 in 10.0 mi SSE 17.3 mph 24.2 mph N/A   Mostly Cloudy
7:51 AM 64.9 °F 62.1 °F 90% 29.96 in 10.0 mi SSE 16.1 mph 28.8 mph N/A   Scattered Clouds
8:20 AM 64.4 °F 62.6 °F 94% 30.07 in 10.0 mi SSE 20.7 mph 28.8 mph N/A   Mostly Cloudy
8:51 AM 66.0 °F 63.0 °F 90% 29.99 in 10.0 mi SSE 15.0 mph 21.9 mph N/A   Overcast
9:12 AM 66.2 °F 62.6 °F 88% 30.08 in 10.0 mi SSE 16.1 mph 27.6 mph N/A   Scattered Clouds
9:51 AM 68.0 °F 61.0 °F 78% 30.01 in 10.0 mi SSE 15.0 mph 28.8 mph N/A   Partly Cloudy
10:51 AM 71.1 °F 60.1 °F 68% 30.01 in 10.0 mi SSE 10.4 mph 19.6 mph N/A   Clear
11:51 AM 72.0 °F 59.0 °F 64% 30.02 in 10.0 mi SE 12.7 mph 19.6 mph N/A   Clear
12:51 PM 72.0 °F 60.1 °F 66% 30.01 in 10.0 mi Variable 5.8 mph 18.4 mph N/A   Partly Cloudy
1:51 PM 72.0 °F 57.0 °F 59% 29.99 in 10.0 mi South 10.4 mph 18.4 mph N/A   Partly Cloudy
3:51 PM 72.0 °F 57.0 °F 59% 30.00 in 10.0 mi SSW 8.1 mph - N/A   Clear
4:51 PM 68.0 °F 59.0 °F 73% 30.00 in 10.0 mi West 9.2 mph - N/A   Clear
5:51 PM 66.0 °F 60.1 °F 81% 30.00 in 10.0 mi West 6.9 mph - N/A   Clear
6:51 PM 64.0 °F 60.1 °F 87% 30.01 in 10.0 mi WSW 6.9 mph - N/A   Clear
7:51 PM 64.0 °F 60.1 °F 87% 30.01 in 10.0 mi SW 5.8 mph - N/A   Clear
8:51 PM 64.9 °F 57.0 °F 75% 30.01 in 10.0 mi Calm Calm - N/A   Clear
9:51 PM 64.9 °F 55.9 °F 73% 30.01 in 10.0 mi Calm Calm - N/A   Clear
10:51 PM 64.9 °F 55.9 °F 73% 30.01 in 10.0 mi Calm Calm - N/A   Clear
11:51 PM 64.0 °F 55.9 °F 75% 30.01 in 10.0 mi NW 3.5 mph - N/A   Clear